+ View the NASA Portal
+ Center for Near-Earth Object Studies
IMPORTANT:
The SSD Announcement email list is now available. Major changes are coming in the near future, including possible hostname and/or URL changes. To be notified of such changes, subscribe to this email list.
Please visit
this page
for more details.
Don't show this message again
JPL Small-Body Database Browser
Search:
[
help
]
233075 (2005 NX14)
Classification:
Main-belt Asteroid
SPK-ID:
2233075
[
Ephemeris
|
Orbit Diagram
|
Orbital Elements
|
Mission Design
|
Physical Parameters
|
Discovery Circumstances
|
Close-Approach Data
]
[ show orbit diagram ]
Orbital Elements at Epoch 2458600.5 (2019-Apr-27.0) TDB
Reference:
JPL 12
(heliocentric ecliptic J2000)
Element
Value
Uncertainty (1-sigma)
Units
e
.2049465583455693
6.443e-08
a
3.154260628828584
4.2806e-08
au
q
2.507805768825234
1.9023e-07
au
i
11.7690773224225
6.3639e-06
deg
node
123.9952219369086
4.3207e-05
deg
peri
177.656032770169
5.0888e-05
deg
M
165.8150596042445
3.2397e-05
deg
t
p
2457658.032766344638
(2016-Sep-26.53276634)
0.00016982
TDB
period
2046.184495700928
5.60
4.1652e-05
1.14e-07
d
yr
n
.1759372142425899
3.5814e-09
deg/d
Q
3.800715488831933
5.1579e-08
au
Orbit Determination Parameters
# obs. used (total)
272
data-arc span
9477 days (25.95 yr)
first obs. used
1992-02-25
last obs. used
2018-02-05
planetary ephem.
DE431
SB-pert. ephem.
SB431-N16
condition code
0
norm. resid. RMS
.643
source
ORB
producer
Otto Matic
solution date
2018-Oct-04 08:59:13
Additional Information
Earth MOID
= 1.49168 au
Jupiter MOID
= 1.46126 au
T_jup
= 3.142
[ show covariance matrix ]
[
Ephemeris
|
Orbit Diagram
|
Orbital Elements
|
Mission Design
|
Physical Parameters
|
Discovery Circumstances
|
Close-Approach Data
]
Physical Parameter Table
Parameter
Symbol
Value
Units
Sigma
Reference
Notes
absolute magnitude
H
15.1
n/a
MPO251643
diameter
diameter
6.185
km
0.235
urn:nasa:pds:neowise_diameters_albedos::2.0[mainbelt] (http://adsabs.harvard.edu/abs/2011ApJ...741...68M)
geometric albedo
albedo
0.042
0.012
urn:nasa:pds:neowise_diameters_albedos::2.0[mainbelt] (http://adsabs.harvard.edu/abs/2012ApJ...759L...8M)
233075 (2005 NX14)
Discovered 2005-Jul-03 by Mt. Lemmon Survey at Mount Lemmon
Reference:
20100228/Numbers.arc
Last Updated:
2010-03-03
[ show close-approach data ]
[
Ephemeris
|
Orbit Diagram
|
Orbital Elements
|
Mission Design
|
Physical Parameters
|
Discovery Circumstances
|
Close-Approach Data
]
2019-Dec-10 06:25 UT
(server date/time)
Site Manager:
Ryan S. Park
Webmaster
:
Alan B. Chamberlin